www.pogodaiklimat.ru

Погода и климат >> Архив погоды >> Монголия >> Мандалгоби


ПОГОДА в Мандалгоби

  • Прогноз погоды в Мандалгоби
  • Монитор погоды в Мандалгоби

АРХИВ ПОГОДЫ в Мандалгоби

Время (UTC), дата Ветер
(напр.,м/с)
 
Видим.   Явления Облачность Т
(С)
Тd
(С)
f
(%)
Тe
(С)
Тes
(С)
Комфортность P
(гПа)
Po
(гПа)
Тmin
(С)
Tmax
(С)
R
(мм)
R24
(мм)
S
(см)
18 18.06 СВ 1 н/о 1/0
[Ci fib]
+18.4 +1.8 33 +20 +20 1010.2 858.1
21 18.06 СВ 1 50 км 3/0
[Ci]
+15.3 +2.1 41 +16 +16 1012.0 858.2
00 19.06 С 4 50 км 10/0
[Ac lent Cs]
+21.2 +2.9 30 +21 +23 комфорт 1009.6 859.1 +14.8
03 19.06 В 2 50 км 10/0
[Ac cast Cc]
+26.8 +2.7 21 +25 +37 комфорт 1006.6 859.0
06 19.06 З 2 50 км 10/5 1000 м
[Cu med, cong Ac As]
+26.8 +2.0 20 +25 +28 комфорт 1004.9 857.5
09 19.06 В 3 50 км 9/5 1000 м
[Sc Cs]
+28.1 +0.8 17 +26 +29 жарко 1002.8 856.4
12 19.06 СВ 3 50 км 8/3 1000 м
[Sc Ac cast Ci fib]
+26.5 +3.1 22 +25 +25 комфорт 1004.0 856.6 +29.6
15 19.06 СВ 3 н/о 6/4 1000 м
[Sc Ac cast]
+22.3 +3.9 30 +22 +22 комфорт 1007.2 857.5
18 19.06 В 3 н/о 3/0
[Ac lent Ci fib]
+19.6 +3.7 35 +20 +20 1009.0 857.7
21 19.06 В 5 50 км 3/0
[Ac cast Ci fib]
+17.7 +2.0 35 +17 +17 1010.0 857.6
00 20.06 В 3 50 км 3/0
[Ac trans]
+22.4 +3.0 28 +22 +26 комфорт 1008.4 858.5 +17.3
03 20.06 С 2 50 км 3/1 1000 м
[Cu hum Ci]
+27.8 +1.3 18 +26 +39 жарко 1005.5 858.5
06 20.06 СВ 6 50 км 3/1 1000 м
[Cu hum Ci]
+29.7 -2.4 12 +27 +33 жарко 1014.0 857.4
09 20.06 СВ 6 50 км 8/1 1000 м
[Cu hum Cs]
+30.7 -1.7 12 +27 +30 жарко 1001.4 856.3
12 20.06 В 4 50 км 8/3 1000 м
[Sc Cs]
+28.3 -1.7 14 +26 +26 жарко 1003.8 857.3 +31.5
15 20.06 В 2 н/о 3/0
[Ac trans Ci]
+23.2 +0.3 22 +22 +22 комфорт 1007.8 858.4
18 20.06 В 6 н/о 8/0
[Cs]
+21.4 -1.2 22 +21 +21 комфорт 1008.9 858.5
21 20.06 СВ 2 50 км 3/0
[Ci]
+19.8 -5.9 17 +20 +20 1010.2 858.9
00 21.06 ЮВ 3 50 км 9/0
[Ac cast Cs]
+26.2 -2.5 15 +24 +27 комфорт 1007.4 859.4 +18.5
03 21.06 Ю 6 50 км 10/1 1000 м
[Cu hum Cs]
+30.1 -1.3 13 +27 +32 жарко 1005.6 859.6
06 21.06 ЮВ 6 50 км 10/4 1000 м
[Cu med, cong Cs]
+31.2 -2.7 11 +28 +31 жарко 1003.9 858.7
09 21.06 В 6 50 км 10/4 1000 м
[Cu med, cong Cs]
+31.3 -3.9 10 +28 +29 жарко 1002.7 857.7
12 21.06 ЮВ 6 50 км 10/3 1000 м
[Sc Cs]
+28.8 -3.4 12 +26 +26 жарко 1004.5 858.2 +32.7
15 21.06 ЮВ 5 н/о 8/1 1000 м
[Sc Cs]
+23.2 -1.7 19 +22 +22 комфорт 1008.3 858.8
18 21.06 В 1 н/о 8/0
[Cs]
+20.9 -2.9 20 +22 +22 комфорт 1009.7 859.0
21 21.06 ЮВ 1 50 км 8/0
[Cs]
+18.4 -3.1 23 +20 +20 1011.4 859.2
00 22.06 Ю 3 50 км 8/0
[Ac lent Cs]
+24.6 -2.9 16 +23 +26 комфорт 1008.3 859.4 +17.7
03 22.06 Ю 7 50 км 10/0
[Ac trans Cs]
+28.8 -3.4 12 +26 +29 жарко 1005.0 858.6
06 22.06 ЮВ 8 50 км 10/3 1000 м
[Sc Ac lent Cs]
+30.3 -2.2 12 +27 +28 жарко 1002.8 857.3
09 22.06 В 7 50 км 9/4 1000 м
[Cu hum Cs]
+30.3 -2.2 12 +27 +28 жарко 1001.0 855.8
12 22.06 ЮЗ 9 50 км 9/5 1000 м
[Sc Ac und Ci]
+27.2 +3.6 22 +26 +26 жарко 1002.4 855.6 +32.9
15 22.06 ЮЗ 2 н/о 6/0
[Ac As Ci fib]
+22.4 +4.4 31 +23 +23 комфорт 1006.0 856.5
18 22.06 ЮЗ 2 н/о 10/0
[As op]
+21.0 +7.2 41 +23 +23 комфорт 1006.3 856.1
21 22.06 В 1 50 км 10/10 1000 м
[Cu med, cong]
+19.8 +8.2 47 +22 +22 комфорт 1006.7 855.9
00 23.06 Ю 5 50 км {ливн. осадки} 10/10 1000 м
[Sc]
+22.2 +8.0 40 +23 +23 комфорт 1005.8 856.2 +19.7 0.9
03 23.06 ЮВ 5 50 км 10/6 1000 м
[Sc Ac As]
+24.7 +7.4 33 +25 +26 комфорт 1004.5 856.2
06 23.06 В 2 50 км 10/5 1000 м
[Sc Ac trans Cs]
+26.6 +8.1 31 +27 +31 жарко 1001.6 854.7
09 23.06 В 7 50 км 9/1 1000 м
[Cu hum Ac lent Cs]
+26.4 +5.9 27 +26 +27 жарко 1001.2 854.3
12 23.06 В 5 50 км 9/0
[Ac trans Cs]
+24.2 +6.5 32 +24 +24 комфорт 1002.6 854.5 +27.6
15 23.06 штиль 0 н/о 5/0
[Ac trans Ci fib]
+20.5 +6.8 41 +21 +21 комфорт 1004.6 854.4
18 23.06 В 2 н/о 3/0
[Ac trans]
+17.4 +7.2 51 +18 +18 1005.9 854.1
21 23.06 С 1 50 км 8/0
[Cs]
+15.5 +6.8 56 +16 +16 1007.1 854.1
00 24.06 С 3 50 км 6/0
[Ac As Ci fib]
+23.3 +6.6 34 +24 +26 комфорт 1002.5 853.9 +15.0
03 24.06 С 3 50 км 3/1 1000 м
[Cu hum Ci]
+27.4 +6.8 27 +27 +38 жарко 999.8 853.5
06 24.06 В 3 50 км 6/6 600 м
[Cu med, cong]
+30.2 +4.0 19 +28 +34 жарко 996.6 852.0
09 24.06 Ю 2 50 км 8/8 600 м
[Cu med, cong Ci fib]
+29.8 +2.9 18 +28 +29 жарко 995.4 850.8
12 24.06 Ю 3 50 км 6/3 600 м
[Cb calv Ac cuf Ci fib]
+28.1 +4.4 22 +27 +27 жарко 996.2 850.8 +32.2
15 24.06 С 7 н/о 8/8 600 м
[Cb calv]
+22.6 +10.4 46 +24 +24 комфорт 1000.2 851.6
18 24.06 штиль 0 н/о 10/10 600 м
[Sc]
+21.6 +9.5 46 +23 +23 комфорт 999.9 850.9
21 24.06 З 3 н/о 10/8 600 м
[Cb calv Ac cast]
+20.4 +9.3 49 +22 +22 комфорт 1000.4 850.7
00 25.06 З 5 50 км слаб. ливневой дождь 10/8 600 м
[Cb calv Ac cast Ci fib]
+18.3 +13.0 71 +18 +19 1001.6 850.8 +18.2 0.5
03 25.06 З 4 50 км {ливн. осадки} 9/6 1000 м
[Cb calv Ac As Ci fib]
+21.9 +9.1 44 +23 +26 комфорт 999.8 850.9
06 25.06 З 5 50 км {ливн. осадки} 8/8 1000 м
[Cb calv]
+26.3 +7.4 30 +26 +28 жарко 996.0 849.8
09 25.06 З 4 50 км 8/8 1000 м
[Cu med, cong]
+27.6 +2.6 20 +26 +27 жарко 994.9 849.3
12 25.06 В 2 50 км 3/3 1000 м
[Cu hum]
+25.9 -0.2 18 +24 +24 комфорт 995.8 849.4 +28.1 0.0
15 25.06 З 5 н/о 1/1 1000 м
[Sc]
+20.1 -5.7 17 +20 +20 999.9 850.2

 

Местоположение метеостанции Мандалгоби (Монголия): широта 45.77 долгота 106.28 высота над уровнем моря 1393 м.

В архиве по умолчанию представлена погода в Мандалгоби за последнюю неделю. Архивные данные за месяц целиком и за предыдущие месяцы, начиная с января 2011 года, Вы можете получить, выбрав интересующий диапазон дат из раскрывающегося списка и нажав кнопку "Ввод!".


*Определитесь, кто Вы:
робот инопланетянин человек

Внимание! Время в таблицах - всемирное. Для получения местного времени необходимо прибавить поправку, которая равна 8 ч.

Смотрите также архив погоды в соседних городах и на ближайших метеорологических станциях:

Погода на Баян Добо Сума (Монголия) (151 км)
Погода в Чойре (Монголия) (167 км)
Погода в Цогт-Овоо (Монголия) (168 км)
Погода в Сайкхан-Ову (Монголия) (189 км)
Погода в Маанти (Монголия) (193 км)
Погода в Бат Олжий Вунд (Монголия) (232 км)
Погода в Улан-Батор аэропорту (Монголия) (235 км)
Погода в Улан-Баторе (Монголия) (243 км)
Погода в Арвайхээре (Монголия) (276 км)
Погода в Даланзадгаде (Монголия) (285 км)

Пояснения к столбцам:

Ветер - указаны скорость ветра в м/с - средняя за 10 мин, порывы в срок и между сроками (в фигурных скобках) и направление, откуда дует ветер: С - северный, СВ - северо-восточный, В - восточный, ЮВ - юго-восточный, Ю - южный, ЮЗ - юго-западный, З - западный, СЗ - северо-западный.
Видимость - горизонтальная дальность видимости в метрах или километрах. При видимости от 1 до 10 км при отсутствии осадков обычно наблюдается дымка, при ухудшении видимости до 1 км и менее - туман. В сухую погоду видимость может ухудшаться дымом, пылью или мглою.
Явления - указаны атмосферные явления, наблюдавшиеся в срок или в последний час перед сроком; фигурными скобками обозначены явления, наблюдавшиеся между сроками (за 1-3 часа до срока); квадратными скобками обозначены град или гололедные отложения с указанием их диаметра в мм.
Облачность - указаны через наклонную черту общая и нижняя облачность в баллах и высота нижней границы облаков в метрах; квадратными скобками обозначены формы облаков: Ci - перистые, Cs - перисто-слоистые, Cc - перисто-кучевые, Ac - высококучевые, As - высокослоистые, Sc - слоисто-кучевые, Ns - слоисто-дождевые, Cu - кучевые, Cb - кучево-дождевые. Подробнее классификацию облаков см. в Атласе облаков (PDF).
T - Температура воздуха - температура, измеренная на высоте 2 м над землей.
Td - Температура точки росы - температура, при понижении до которой содержащийся в воздухе водяной пар достигнет насыщения.
f - Относительная влажность воздуха - влажноcть воздуха, измеренная на высоте 2 м над землей.
Te - Эффективная температура - температура, которую ощущает одетый по сезону человек в тени. Характеристика душности погоды. При расчете учитывается влияние влажности воздуха и скорости ветра на теплоощущения человека.
Tes - Эффективная температура на солнце - температура, которую ощущает человек, с поправкой на солнечный нагрев. Характеристика знойности погоды. Зависит от высоты солнца над горизонтом, облачности и скорости ветра. Ночью, в пасмурную погоду, а также при ветре 12 м/с и более поправка равна нулю.
P - Атмосферное давление - приведенное к уровню моря атмосферное давление.
Po - Атмосферное давление - измеренное на уровне метеостанции атмосферное давление.
Tmin - Минимальная температура - минимум температуры воздуха на высоте 2 м над землей.
Tmax - Максимальная температура - максимум температуры воздуха на высоте 2 м над землей.
R - Количество осадков - Количество выпавших осадков за период времени, мм. При наведении курсора мыши на число - период времени, за который выпало указанное количество осадков.
R24 - Количество осадков - Количество выпавших осадков за 24 часа, мм.
S - Снежный покров - Высота снежного покрова, см. При наведении курсора мыши на число - состояние снежного покрова и степень покрытия местности в баллах.